Location: Spaichingen
(48.0400°N, 8.4300°E)
Time: 13:32:37
(UTC+02:00)

Tiangong 2 - Pass Details

Date: 26 May 2019
Orbit: 376 x 389 km, 42.8° (Epoch: 20 June)

Event Time Altitude Azimuth Distance (km) Brightness Sun altitude
Rises 21:46:29 0° 258° (WSW) 2,237 5.5 -5.5°
Reaches altitude 10° 21:48:41 10° 247° (WSW) 1,383 4.3 -5.8°
Maximum altitude 21:51:28 30° 184° (S) 710 2.1 -6.1°
Drops below altitude 10° 21:54:14 10° 121° (ESE) 1,380 3.2 -6.5°
Enters shadow 21:54:35 - 119° (ESE) 1,509 3.4 -6.5°
